Flag for U.S.A. Weather past 2 weeks in Chicago, Illinois, U.S.A.

50 °F

Passing clouds.

Feels Like: 49 °F
Forecast: 52 / 65 °F
Wind: 3 mph from Northwest

Location: Chicago Midway Airport

Current Time: Oct 10, 2015 at 2:07:05 AM

Latest Report: Oct 10, 2015 at 12:53 AM

Visibility: 10 mi

Pressure: 30.24 "Hg

Humidity: 77%

Dew point: 43 °F

Location of ChicagoLocation

Historic Weather in Chicago — Graph


Chicago temperature yesterday

Maximum temperature yesterday: 67 °F (at 12:53 AM)
Minimum temperature yesterday: 51 °F (at 11:53 PM)
Average temperature yesterday: 59 °F

Past Weeks' High & Low Weather Summary

High80 °F (Sep 28, 3:53 PM)90% (Oct 5, 6:53 AM)30.34 "Hg (Oct 5, 6:53 AM)
Low50 °F (Oct 3, 5:53 AM)41% (Oct 2, 4:53 PM)29.85 "Hg (Oct 8, 6:53 PM)
Average62 °F68%30.13 "Hg
* Reported Sep 25 12:53 AM — Oct 10 12:53 AM, Chicago, Weather by CustomWeather, © 2015

Note: Actual official high and low records may vary slightly from our data, if they occured in-between our weather recording intervals... More about our weather records


Chicago weather history for previous 24 hours

Time TempWeatherWind HumidityBarometerVisibility
12:53 AM
Sat, Oct 10
50 °FPassing clouds.3 mph77%30.24 "Hg10 mi
11:53 PM
Fri, Oct 9
51 °FPassing clouds.No wind74%30.23 "Hg10 mi
10:53 PM54 °FPassing clouds.No wind67%30.24 "Hg10 mi
9:53 PM55 °FPassing clouds.8 mph64%30.23 "Hg10 mi
8:53 PM56 °FPassing clouds.8 mph62%30.22 "Hg10 mi
7:53 PM56 °FPassing clouds.6 mph62%30.21 "Hg10 mi
6:53 PM56 °FScattered clouds.10 mph62%30.19 "Hg10 mi
5:53 PM58 °FPartly sunny.15 mph60%30.19 "Hg10 mi
4:53 PM59 °FPartly sunny.15 mph58%30.18 "Hg10 mi
3:53 PM62 °FPartly sunny.17 mph50%30.16 "Hg10 mi
2:53 PM60 °FBroken clouds.13 mph58%30.15 "Hg10 mi
1:53 PM61 °FBroken clouds.13 mph56%30.15 "Hg10 mi
12:53 PM59 °FMostly cloudy.15 mph64%30.16 "Hg10 mi
11:53 AM59 °FMostly cloudy.15 mph64%30.15 "Hg10 mi
10:53 AM58 °FMostly cloudy.14 mph67%30.15 "Hg10 mi
9:53 AM58 °FBroken clouds.16 mph65%30.13 "Hg10 mi
8:53 AM57 °FBroken clouds.14 mph64%30.10 "Hg10 mi
7:53 AM57 °FMostly cloudy.17 mph72%30.07 "Hg10 mi
6:53 AM59 °FOvercast.15 mph72%30.01 "Hg10 mi
5:53 AM61 °FMostly cloudy.8 mph72%29.99 "Hg10 mi
4:53 AM61 °FOvercast.12 mph75%29.96 "Hg10 mi
3:53 AM61 °FMostly cloudy.12 mph75%29.94 "Hg9 mi
2:53 AM62 °FMostly cloudy.12 mph75%29.92 "Hg8 mi
Weather by CustomWeather, © 2015

See weather overviewHow to use our weather pages